Location: El Mouella
(16.4949°N, 9.1594°W)
Time: 02:43:58
(UTC+00:00)

H-2A R/B - Pass Details

Date: 30 September 2020
Orbit: 734 x 836 km, 98.2° (Epoch: 20 October)

Event Time Altitude Azimuth Distance (km) Brightness Sun altitude
Exits shadow 21:17:08 11° 247° (WSW) 2,187 4.8 -41.7°
Maximum altitude 21:18:25 12° 263° (W) 2,128 4.8 -42.0°
Drops below altitude 10° 21:20:18 10° 285° (WNW) 2,280 5.1 -42.4°
Sets 21:24:12 0° 316° (NW) 3,231 5.8 -43.4°
